[[{"header":{"parameterUnit":"m.s-1","parameterCategory":1,"la1":30.2991,"la2":30.254,"lo1":-89.0895,"lo2":-89.0444,"dy":0.0017,"dx":0.0017,"nx":28,"ny":28,"refTime":"2023-08-09T21:00:00:Z","depth":0,"parameterNumber":2,"parameterNumberName":"U-component_of_WINDS"},"data":[0,0,0,0,0,0,0,0,0,0,0,0,0,0,0,0,0,0,0,0,0,0,0,0,0,0,0,0,0,0,0,0,0,0,0,0,0,0,0,0,0,0,0,0,0,0,0,0,0,0,0,0,0,0,0,0,0,0,5.14,5.14,0,5.1479,5.148,5.1481,5.144,5.1438,5.1436,5.1434,5.1513,5.1516,5.152,0,0,0,0,0,0,0,0,0,0,0,0,0,5.1208,5.1212,5.1399,5.1401,5.1402,5.1479,5.148,5.1481,5.144,5.1438,5.1435,5.1433,5.1511,5.1516,5.1521,0,0,0,0,0,0,0,0,0,0,0,0,0,5.129,5.1213,5.1399,5.1391,5.1391,5.1478,5.148,5.1481,5.1441,5.1438,5.1435,5.1432,5.151,5.1516,5.1521,5.1621,0,0,5.154,5.1543,0,0,0,0,0,0,0,0,5.1285,5.1297,5.1391,5.1391,5.1392,5.1446,5.1441,5.1528,5.1442,5.1422,5.1434,5.143,5.1493,5.15,5.1522,5.1625,5.1628,5.1541,5.1544,5.1547,5.1549,0,0,0,0,0,0,0,5.1279,5.1293,5.1431,5.1392,5.1393,5.1381,5.1389,5.1457,5.1474,5.1423,5.1421,5.1431,5.1492,5.1516,5.1523,5.163,5.154,5.1546,5.1549,5.1552,5.1814,5.1817,0,0,0,0,0,0,5.1275,5.1289,5.1428,5.1433,5.133,5.1387,5.1396,5.1432,5.1473,5.1476,5.1433,5.1429,5.1507,5.1516,5.1526,5.1642,5.1547,5.1552,5.1556,5.181,5.1814,5.1818,0,0,0,0,0,0,5.1271,5.1288,5.1425,5.136,5.1377,5.1394,5.1434,5.1435,5.1459,5.1481,5.1483,5.1455,5.1505,5.1517,5.1597,5.1644,5.1555,5.1561,5.1806,5.1811,5.1816,5.1876,0,0,0,0,0,0,5.1266,5.1286,5.1326,5.1361,5.138,5.1497,5.1437,5.1439,5.147,5.1464,5.1501,5.1504,5.1504,5.1588,5.1603,5.1651,5.1565,5.1802,5.1809,5.1814,5.187,5.1883,5.1893,0,0,0,0,0,5.1259,5.134,5.1328,5.1345,5.143,5.1499,5.151,5.1508,5.1474,5.1512,5.1525,5.1503,5.1637,5.1597,5.1613,5.1663,5.1799,5.1807,5.1814,5.1865,5.188,5.1893,0,0,0,0,0,0,5.131,5.1345,5.1332,5.1428,5.1461,5.1492,5.1541,5.1525,5.1569,5.1561,5.1557,5.1565,5.1647,5.1664,5.1618,5.1759,5.1712,5.1723,5.1745,5.176,5.1772,5.1764,5.157,0,0,0,0,0,5.1333,5.1387,5.1414,5.1496,5.1513,5.1524,5.1555,5.155,5.1584,5.1597,5.1617,5.165,5.1698,5.1731,5.1777,5.1873,5.1878,5.1915,5.1927,5.1937,5.1945,5.1992,5.2008,5.1842,5.1842,5.1842,0,0,5.1379,5.1405,5.144,5.1507,5.1532,5.1586,5.1537,5.1597,5.1636,5.1606,5.1681,5.1697,5.1733,5.182,5.1859,5.1836,5.1992,5.1946,5.1953,5.1957,5.2001,5.2017,5.2031,5.1847,5.1847,5.1846,0,0,5.1491,5.1518,5.1587,5.1613,5.1651,5.1658,5.1674,5.1708,5.1717,5.1793,5.177,5.1816,5.1902,5.1927,5.1951,5.2069,5.2049,5.2085,5.2145,5.2191,5.2204,5.2215,5.2253,5.2267,5.2094,5.2094,5.2094,0,5.1544,5.1626,5.1624,5.1685,5.1713,5.1689,5.1757,5.1782,5.1834,5.1852,5.1827,5.193,5.1954,5.2043,5.2072,5.2094,5.2109,5.2079,5.2202,5.2214,5.2224,5.226,5.2275,5.2098,5.2098,5.2097,5.2097,0,5.1687,5.1744,5.1794,5.1844,5.1878,5.1943,5.1948,5.1983,5.1975,5.1983,5.2058,5.2085,5.2134,5.2156,5.215,5.2244,5.2228,5.2203,5.2154,5.2244,5.2277,5.2291,5.2103,5.2102,5.2101,5.21,0,0,5.1833,5.1879,5.1897,5.1918,5.1957,5.2,5.2062,5.211,5.2138,5.2175,5.2223,5.2295,5.227,5.2298,5.2294,5.2335,5.2421,5.2303,5.2304,5.2321,5.2522,5.2538,5.2554,5.2409,5.2412,5.2414,5.2517,0,5.1944,5.2053,5.2051,5.2151,5.22,5.2177,5.223,5.2259,5.2268,5.2311,5.2321,5.237,5.2336,5.2351,5.2391,5.2402,5.2461,5.2395,5.2451,5.2453,5.2439,5.2573,5.2591,5.2687,5.2531,5.2533,5.2535,0,5.2089,5.2128,5.2232,5.2261,5.2282,5.233,5.2372,5.2414,5.2445,5.2448,5.2477,5.2466,5.2526,5.2478,5.2558,5.2513,5.2536,5.2545,5.2549,5.2551,5.2497,5.2575,5.2719,5.2731,5.2556,5.2555,5.2553,0,5.2179,5.2259,5.233,5.2349,5.2386,5.2419,5.2435,5.2463,5.2491,5.2528,5.2545,5.2589,5.2612,5.2645,5.2644,5.261,5.2724,5.2677,5.2725,5.2725,5.2748,5.2746,5.2893,5.2769,5.2769,5.2769,5.2768,0,5.2301,5.2365,5.2371,5.2414,5.2483,5.2481,5.2549,5.2562,5.2587,5.263,5.2614,5.2655,5.2654,5.2695,5.2696,5.2759,5.2771,5.2773,5.2771,5.2772,5.2771,5.2785,5.2776,5.2772,5.2772,5.2771,5.277,0,5.2413,5.242,5.2495,5.2523,5.2532,5.2581,5.2604,5.2644,5.2651,5.2706,5.2719,5.273,5.2777,5.2781,5.2836,5.2836,5.2912,5.2905,5.2901,5.2899,5.2945,5.2939,5.3103,5.3123,5.299,5.2991,5.2992,0,5.2489,5.2537,5.2569,5.2597,5.2615,5.2662,5.2689,5.2688,5.2717,5.2754,5.2789,5.2835,5.2871,5.2947,5.2959,5.3,5.2991,5.3046,5.2997,5.2995,5.2987,5.2983,5.2985,5.3055,5.3056,5.3057,5.3058,0,5.2621,5.2621,5.2662,5.2704,5.2738,5.2771,5.2801,5.2825,5.2827,5.286,5.2908,5.2936,5.2991,5.3035,5.3075,5.309,5.3073,5.3074,5.3086,5.3086,5.308,5.3079,5.2923,5.3069,5.3068,5.3067,5.3067,5.3066,5.2714,5.2753,5.2781,5.2827,5.285,5.2878,5.2915,5.2927,5.2967,5.3012,5.3009,5.3061,5.3087,5.3138,5.3156,5.3195,5.3177,5.3196,5.32,5.3204,5.3206,5.3077,5.3203,5.3203,5.3203,5.3202,5.3202,0,5.2841,5.2857,5.2899,5.2942,5.2977,5.296,5.2992,5.3021,5.3067,5.3094,5.3129,5.3182,5.3224,5.3239,5.3279,5.3308,5.3301,5.3318,5.3314,5.3317,5.3223,5.3206,5.3322,5.3322,5.3322,5.3322,5.3322,5.3322,5.2911,5.2976,5.2979,5.3054,5.307,5.3121,5.314,5.3165,5.3185,5.3245,5.328,5.329,5.331,5.3352,5.3388,5.3391,5.3405,5.3425,5.3424,5.3336,5.3324,5.3312,5.3296,5.3429,5.3429,5.3514,5.3515,5.3515]},{"header":{"parameterUnit":"m.s-1","parameterCategory":1,"la1":30.2991,"la2":30.254,"lo1":-89.0895,"lo2":-89.0444,"dy":0.0017,"dx":0.0017,"nx":28,"ny":28,"refTime":"2023-08-09T21:00:00:Z","depth":0,"parameterNumber":3,"parameterNumberName":"V-component_of_WINDS"},"data":[0,0,0,0,0,0,0,0,0,0,0,0,0,0,0,0,0,0,0,0,0,0,0,0,0,0,0,0,0,0,0,0,0,0,0,0,0,0,0,0,0,0,0,0,0,0,0,0,0,0,0,0,0,0,0,0,0,0,5.4272,5.4273,0,5.4379,5.4381,5.4382,5.4328,5.4325,5.4322,5.432,5.4427,5.4433,5.4438,0,0,0,0,0,0,0,0,0,0,0,0,0,5.4015,5.402,5.4271,5.4273,5.4274,5.4379,5.4381,5.4382,5.4328,5.4325,5.4322,5.4318,5.4426,5.4432,5.4439,0,0,0,0,0,0,0,0,0,0,0,0,0,5.4125,5.4021,5.4271,5.426,5.426,5.4379,5.4381,5.4383,5.4329,5.4325,5.4321,5.4317,5.4423,5.4431,5.444,5.4575,0,0,5.4465,5.4468,0,0,0,0,0,0,0,0,5.4118,5.4134,5.426,5.4261,5.4261,5.4336,5.433,5.4447,5.433,5.4303,5.432,5.4315,5.44,5.441,5.4439,5.458,5.4584,5.4465,5.447,5.4474,5.4476,0,0,0,0,0,0,0,5.4111,5.4129,5.4314,5.4262,5.4263,5.4248,5.4259,5.4352,5.4374,5.4305,5.4301,5.4315,5.44,5.4432,5.4442,5.4586,5.4465,5.4472,5.4478,5.4481,5.4839,5.4844,0,0,0,0,0,0,5.4104,5.4123,5.4311,5.4317,5.4178,5.4256,5.4269,5.4316,5.4373,5.4377,5.4318,5.4312,5.442,5.4432,5.4445,5.4605,5.4474,5.4482,5.4486,5.4835,5.484,5.4845,0,0,0,0,0,0,5.4099,5.4122,5.4306,5.4219,5.4242,5.4265,5.4319,5.4321,5.4353,5.4383,5.4386,5.4347,5.4417,5.4434,5.4542,5.4608,5.4485,5.4493,5.4829,5.4836,5.4843,5.4928,0,0,0,0,0,0,5.4092,5.412,5.4173,5.4221,5.4247,5.4403,5.4323,5.4326,5.4367,5.436,5.4411,5.4415,5.4415,5.453,5.4551,5.4617,5.4499,5.4823,5.4832,5.484,5.4919,5.4937,5.4952,0,0,0,0,0,5.4083,5.4192,5.4176,5.4199,5.4313,5.4407,5.4422,5.442,5.4373,5.4425,5.4444,5.4414,5.4598,5.4542,5.4564,5.4634,5.4819,5.483,5.484,5.4912,5.4933,5.4951,0,0,0,0,0,0,5.4151,5.4199,5.4181,5.4309,5.4355,5.4398,5.4464,5.4443,5.4502,5.4493,5.4487,5.4499,5.4611,5.4634,5.4571,5.4767,5.4701,5.4716,5.4748,5.4769,5.4785,5.4776,5.4506,0,0,0,0,0,5.4181,5.4255,5.4292,5.4402,5.4425,5.4441,5.4482,5.4476,5.4523,5.4542,5.4569,5.4614,5.4681,5.4726,5.479,5.4922,5.4931,5.4981,5.4997,5.501,5.5023,5.5092,5.5114,5.4879,5.4879,5.4879,0,0,5.4244,5.4279,5.4326,5.4416,5.4451,5.4525,5.4458,5.454,5.4595,5.4554,5.4658,5.4679,5.4729,5.4849,5.4903,5.4871,5.509,5.5023,5.5034,5.504,5.5105,5.5127,5.5147,5.4886,5.4885,5.4884,0,0,5.4396,5.4431,5.4526,5.4561,5.4614,5.4624,5.4646,5.4693,5.4705,5.481,5.478,5.4844,5.4962,5.4998,5.5031,5.5195,5.5168,5.5216,5.5301,5.5368,5.5386,5.5403,5.5459,5.548,5.5229,5.5229,5.5229,0,5.4468,5.458,5.4576,5.4661,5.47,5.4667,5.4761,5.4795,5.4867,5.4894,5.4857,5.5002,5.5034,5.5161,5.52,5.5229,5.5253,5.521,5.5384,5.54,5.5416,5.5469,5.5491,5.5234,5.5234,5.5233,5.5233,0,5.4664,5.4742,5.4812,5.4881,5.4929,5.5018,5.5026,5.5074,5.5064,5.5076,5.5182,5.5218,5.5288,5.5317,5.5308,5.5443,5.5421,5.5385,5.5318,5.5443,5.5494,5.5515,5.5242,5.524,5.5239,5.5237,0,0,5.4863,5.4929,5.4954,5.4984,5.5039,5.5099,5.5185,5.5254,5.5294,5.5344,5.5415,5.5514,5.548,5.5518,5.5513,5.5572,5.5696,5.5527,5.5528,5.5556,5.5844,5.587,5.5895,5.5679,5.5683,5.5686,5.5839,0,5.5018,5.517,5.5168,5.5309,5.5379,5.5347,5.5422,5.5463,5.5477,5.5537,5.5552,5.5622,5.5572,5.5595,5.5652,5.5669,5.5754,5.5658,5.5743,5.5746,5.5731,5.5921,5.595,5.6093,5.5859,5.5863,5.5865,0,5.522,5.5276,5.5423,5.5466,5.5495,5.5563,5.5624,5.5684,5.5729,5.5734,5.5776,5.5761,5.5846,5.5778,5.5894,5.5829,5.5863,5.5877,5.5882,5.589,5.5813,5.5932,5.6139,5.616,5.5896,5.5894,5.5892,0,5.5348,5.5461,5.5563,5.559,5.5643,5.569,5.5714,5.5755,5.5796,5.5849,5.5875,5.5938,5.5972,5.6019,5.602,5.5971,5.6138,5.607,5.6143,5.6143,5.6179,5.6177,5.6393,5.6203,5.6203,5.6203,5.6202,0,5.5521,5.5612,5.5621,5.5684,5.5784,5.578,5.5879,5.5898,5.5934,5.5998,5.5974,5.6035,5.6033,5.6094,5.6096,5.6191,5.6207,5.6212,5.6211,5.6214,5.6213,5.6236,5.6226,5.6208,5.6207,5.6206,5.6205,0,5.5682,5.5692,5.58,5.5841,5.5853,5.5925,5.5959,5.6018,5.6028,5.611,5.6129,5.6146,5.6216,5.6222,5.6304,5.6304,5.6419,5.6408,5.6404,5.6402,5.6475,5.6467,5.6712,5.6743,5.6534,5.6536,5.6538,0,5.5791,5.586,5.5908,5.5949,5.5976,5.6044,5.6085,5.6083,5.6127,5.6181,5.6233,5.6301,5.6356,5.647,5.6488,5.655,5.6539,5.6621,5.6548,5.6548,5.6539,5.6534,5.654,5.6635,5.6637,5.6639,5.664,0,5.5983,5.5984,5.6045,5.6107,5.6157,5.6206,5.6251,5.6287,5.629,5.6339,5.6412,5.6454,5.6537,5.6604,5.6664,5.6687,5.6664,5.6663,5.6683,5.6686,5.6681,5.6683,5.6442,5.6657,5.6656,5.6654,5.6654,5.6653,5.612,5.6179,5.6222,5.629,5.6324,5.6366,5.6423,5.644,5.6501,5.6569,5.6563,5.6642,5.6683,5.6761,5.6789,5.6849,5.6822,5.6851,5.6858,5.6865,5.6872,5.6672,5.686,5.686,5.686,5.6859,5.6859,0,5.631,5.6335,5.6398,5.6462,5.6515,5.6489,5.6537,5.6583,5.6653,5.6693,5.6747,5.6829,5.6894,5.6917,5.6979,5.7023,5.7014,5.704,5.7036,5.7041,5.6894,5.687,5.7046,5.7046,5.7046,5.7046,5.7046,5.7046,5.6415,5.6513,5.6518,5.6632,5.6656,5.6734,5.6764,5.6802,5.6834,5.6927,5.6981,5.6995,5.7028,5.7092,5.715,5.7155,5.7178,5.7209,5.7209,5.7071,5.7052,5.7034,5.7011,5.7214,5.7214,5.7351,5.7352,5.7353]}]]